Hazen, ND

6:37 PM CST on January 24, 2017 (GMT -0600)
Mercer County Regional

Weather History for KHZE - November, 2013

Change the Weather History Date:

Tuesday, November 12, 2013

  Actual Average (KN60) Record (KN60)
Temperature  
Mean Temperature 28 °F -  
Max Temperature 50 °F 36 °F 70 °F (1999)
Min Temperature 5 °F 18 °F -2 °F (1998)
Degree Days  
Heating Degree Days 38    
Moisture  
Dew Point 19 °F    
Average Humidity 68    
Maximum Humidity 86    
Minimum Humidity 43    
Precipitation  
Precipitation 0.00 in - - ()
Sea Level Pressure  
Sea Level Pressure 30.39 in    
Wind  
Wind Speed 6 mph (SW)    
Max Wind Speed 18 mph    
Max Gust Speed 23 mph    
Visibility 10 miles    
Events      
Averages and records for this station are not official NWS values.
T = Trace of Precipitation, MM = Missing Value Source: NWS Daily Summary

Daily Weather History Graph

Daily Weather History Graph

Search for Another Location

Airport or City:

Trip Planner

Search our weather history database for the weather conditions in past years. The results will help you decide how hot, cold, wet, or windy it might be!

Date:

Astronomy

Nov. 12, 2013 Rise Set
Actual Time 7:46 AM CST 5:13 PM CST
Civil Twilight 7:13 AM CST 5:47 PM CST
Nautical Twilight 6:36 AM CST 6:23 PM CST
Astronomical Twilight 6:00 AM CST 6:59 PM CST
Moon 2:46 PM CST (11/12) 2:18 AM CST (11/12)
Length of Visible Light 10h 33m
Length of Day
9h 27m
Waxing Gibbous, 76% of the Moon is Illuminated
Nov 12
Waxing Gibbous
Nov 17
Full
Nov 25
Last Quarter
Dec 2
New
Dec 9
First Quarter

Hourly Weather History & Observations

Time (CST) Temp. Windchill Dew Point Humidity Pressure Visibility Wind Dir Wind Speed Gust Speed Precip Events Conditions
12:15 AM 6.8 °F - -0.4 °F 72% 30.64 in 10.0 mi Calm Calm - N/A   Partly Cloudy
12:35 AM 6.8 °F - -0.4 °F 72% 30.64 in 10.0 mi Calm Calm - N/A   Partly Cloudy
12:55 AM 5.0 °F - -0.4 °F 78% 30.64 in 10.0 mi Calm Calm - N/A   Scattered Clouds
1:15 AM 6.8 °F - 1.4 °F 79% 30.64 in 10.0 mi Calm Calm - N/A   Clear
1:35 AM 6.8 °F - 1.4 °F 79% 30.63 in 10.0 mi Calm Calm - N/A   Clear
1:55 AM 6.8 °F -0.1 °F 1.4 °F 79% 30.62 in 10.0 mi SW 3.5 mph - N/A   Clear
2:15 AM 8.6 °F 0.1 °F 3.2 °F 79% 30.61 in 10.0 mi SW 4.6 mph - N/A   Clear
2:35 AM 14.0 °F 6.5 °F 8.6 °F 79% 30.62 in 10.0 mi West 4.6 mph - N/A   Clear
2:55 AM 14.0 °F 5.1 °F 8.6 °F 79% 30.61 in 10.0 mi SSW 5.8 mph - N/A   Clear
3:15 AM 15.8 °F 8.6 °F 10.4 °F 79% 30.61 in 10.0 mi SW 4.6 mph - N/A   Clear
3:35 AM 15.8 °F 3.4 °F 10.4 °F 79% 30.60 in 10.0 mi SSW 10.4 mph - N/A   Clear
3:55 AM 15.8 °F 6.1 °F 10.4 °F 79% 30.60 in 10.0 mi SW 6.9 mph - N/A   Clear
4:15 AM 15.8 °F 4.2 °F 10.4 °F 79% 30.59 in 10.0 mi SW 9.2 mph - N/A   Clear
4:35 AM 14.0 °F 8.2 °F 8.6 °F 79% 30.59 in 10.0 mi SW 3.5 mph - N/A   Scattered Clouds
4:55 AM 14.0 °F 8.2 °F 8.6 °F 79% 30.58 in 10.0 mi SW 3.5 mph - N/A   Partly Cloudy
5:15 AM 15.8 °F 4.2 °F 10.4 °F 79% 30.57 in 10.0 mi SSW 9.2 mph - N/A   Clear
5:35 AM 15.8 °F 4.2 °F 10.4 °F 79% 30.56 in 10.0 mi SW 9.2 mph - N/A   Clear
5:55 AM 15.8 °F 6.1 °F 10.4 °F 79% 30.56 in 10.0 mi SW 6.9 mph - N/A   Clear
6:15 AM 15.8 °F - 10.4 °F 79% 30.56 in 10.0 mi Calm Calm - N/A   Clear
6:35 AM 15.8 °F 7.2 °F 10.4 °F 79% 30.56 in 10.0 mi SW 5.8 mph - N/A   Clear
6:55 AM 15.8 °F 6.1 °F 10.4 °F 79% 30.55 in 10.0 mi SW 6.9 mph - N/A   Clear
7:15 AM 15.8 °F 6.1 °F 10.4 °F 79% 30.54 in 10.0 mi SSW 6.9 mph - N/A   Clear
7:35 AM 15.8 °F 7.2 °F 10.4 °F 79% 30.54 in 10.0 mi SW 5.8 mph - N/A   Clear
7:55 AM 14.0 °F - 8.6 °F 79% 30.53 in 10.0 mi Calm Calm - N/A   Clear
8:15 AM 14.0 °F 6.5 °F 10.4 °F 86% 30.52 in 10.0 mi South 4.6 mph - N/A   Clear
8:35 AM 19.4 °F 14.3 °F 14.0 °F 80% 30.51 in 10.0 mi SSE 3.5 mph - N/A   Clear
8:55 AM 21.2 °F - 15.8 °F 80% 30.51 in 10.0 mi Calm Calm - N/A   Clear
9:15 AM 23.0 °F 14.7 °F 17.6 °F 80% 30.51 in 10.0 mi SW 6.9 mph - N/A   Clear
9:35 AM 24.8 °F 14.0 °F 17.6 °F 74% 30.49 in 10.0 mi SW 11.5 mph - N/A   Clear
9:55 AM 26.6 °F 17.5 °F 19.4 °F 74% 30.48 in 10.0 mi SW 9.2 mph - N/A   Clear
10:15 AM 28.4 °F 19.7 °F 21.2 °F 74% 30.46 in 10.0 mi SW 9.2 mph - N/A   Clear
10:35 AM 32.0 °F 22.5 °F 23.0 °F 69% 30.46 in 10.0 mi SSW 12.7 mph - N/A   Clear
10:55 AM 33.8 °F 25.3 °F 23.0 °F 65% 30.46 in 10.0 mi SW 11.5 mph - N/A   Clear
11:15 AM 35.6 °F 27.5 °F 24.8 °F 65% 30.45 in 10.0 mi SW 11.5 mph - N/A   Clear
11:35 AM 37.4 °F 29.3 °F 24.8 °F 60% 30.43 in 10.0 mi SW 12.7 mph - N/A   Clear
11:55 AM 39.2 °F 31.6 °F 26.6 °F 61% 30.41 in 10.0 mi SW 12.7 mph 17.3 mph N/A   Clear
12:15 PM 41.0 °F 33.5 °F 26.6 °F 57% 30.40 in 10.0 mi SSW 13.8 mph - N/A   Clear
12:35 PM 42.8 °F 35.8 °F 26.6 °F 53% 30.39 in 10.0 mi SW 13.8 mph - N/A   Clear
12:55 PM 44.6 °F 37.8 °F 28.4 °F 53% 30.38 in 10.0 mi SW 15.0 mph 19.6 mph N/A   Clear
1:15 PM 46.4 °F 40.4 °F 28.4 °F 50% 30.37 in 10.0 mi SW 13.8 mph - N/A   Clear
1:35 PM 46.4 °F 41.1 °F 28.4 °F 50% 30.36 in 10.0 mi WSW 11.5 mph - N/A   Clear
1:55 PM 48.2 °F - 28.4 °F 46% 30.34 in 10.0 mi SW 11.5 mph 16.1 mph N/A   Clear
2:15 PM 48.2 °F - 28.4 °F 46% 30.33 in 10.0 mi SW 12.7 mph - N/A   Clear
2:35 PM 48.2 °F - 28.4 °F 46% 30.32 in 10.0 mi SW 12.7 mph - N/A   Clear
2:55 PM 48.2 °F - 28.4 °F 46% 30.31 in 10.0 mi SW 13.8 mph - N/A   Clear
3:15 PM 50.0 °F - 28.4 °F 43% 30.30 in 10.0 mi SW 12.7 mph - N/A   Clear
3:35 PM 50.0 °F - 28.4 °F 43% 30.30 in 10.0 mi SSW 10.4 mph - N/A   Clear
3:55 PM 48.2 °F - 28.4 °F 46% 30.29 in 10.0 mi SSW 9.2 mph - N/A   Clear
4:15 PM 48.2 °F - 28.4 °F 46% 30.28 in 10.0 mi SSW 8.1 mph - N/A   Clear
4:35 PM 46.4 °F 42.9 °F 28.4 °F 50% 30.27 in 10.0 mi SSW 6.9 mph - N/A   Clear
4:55 PM 42.8 °F 38.6 °F 28.4 °F 57% 30.26 in 10.0 mi South 6.9 mph - N/A   Clear
5:15 PM 37.4 °F 32.1 °F 26.6 °F 65% 30.25 in 10.0 mi South 6.9 mph - N/A   Clear
5:35 PM 35.6 °F 28.0 °F 26.6 °F 70% 30.24 in 9.0 mi SSE 10.4 mph - N/A   Clear
5:55 PM 33.8 °F 28.6 °F 24.8 °F 70% 30.22 in 10.0 mi South 5.8 mph - N/A   Clear
6:15 PM 37.4 °F 28.9 °F 26.6 °F 65% 30.20 in 10.0 mi South 13.8 mph - N/A   Clear
6:35 PM 39.2 °F 29.8 °F 24.8 °F 56% 30.19 in 10.0 mi South 18.4 mph - N/A   Clear
6:55 PM 39.2 °F 30.2 °F 24.8 °F 56% 30.18 in 10.0 mi South 17.3 mph - N/A   Clear
7:15 PM 39.2 °F 30.8 °F 23.0 °F 52% 30.18 in 10.0 mi SSW 15.0 mph 23.0 mph N/A   Clear
7:35 PM 35.6 °F 29.9 °F 23.0 °F 60% 30.18 in 10.0 mi WSW 6.9 mph - N/A   Clear
7:55 PM 35.6 °F 28.6 °F 23.0 °F 60% 30.18 in 10.0 mi SW 9.2 mph - N/A   Clear
8:15 PM 35.6 °F 28.6 °F 23.0 °F 60% 30.17 in 10.0 mi SW 9.2 mph - N/A   Clear
8:35 PM 33.8 °F 26.4 °F 24.8 °F 70% 30.17 in 10.0 mi SW 9.2 mph - N/A   Clear
8:55 PM 33.8 °F 25.3 °F 24.8 °F 70% 30.15 in 10.0 mi SW 11.5 mph 16.1 mph N/A   Clear
9:15 PM 33.8 °F 23.9 °F 24.8 °F 70% 30.15 in 10.0 mi SSW 15.0 mph - N/A   Clear
9:35 PM 33.8 °F 23.9 °F 26.6 °F 75% 30.13 in 10.0 mi SW 15.0 mph - N/A   Clear
9:55 PM 33.8 °F 25.8 °F 26.6 °F 75% 30.13 in 10.0 mi WSW 10.4 mph 18.4 mph N/A   Clear
10:15 PM 32.0 °F 25.6 °F 26.6 °F 80% 30.11 in 10.0 mi West 6.9 mph - N/A   Clear
10:35 PM 32.0 °F 26.4 °F 26.6 °F 80% 30.11 in 10.0 mi WSW 5.8 mph - N/A   Clear
10:55 PM 33.8 °F 27.7 °F 26.6 °F 75% 30.10 in 10.0 mi West 6.9 mph - N/A   Clear
11:15 PM 32.0 °F 25.6 °F 26.6 °F 80% 30.09 in 10.0 mi WSW 6.9 mph - N/A   Clear
11:35 PM 32.0 °F 26.4 °F 26.6 °F 80% 30.08 in 10.0 mi SW 5.8 mph - N/A   Clear
11:55 PM 32.0 °F 24.2 °F 26.6 °F 80% 30.07 in 10.0 mi SW 9.2 mph - N/A   Clear